Location: Alpine
(43.1636°N, 111.0180°W)
Time: 04:58:21
(UTC+00:00)

Tiros 1 despin weight - Pass Details

Date: 29 May 2022
Orbit: 591 x 639 km, 48.2° (Epoch: 30 June)

Event Time Altitude Azimuth Distance (km) Brightness Sun altitude
Rises 02:07:26 0° 264° (W) 2,875 ? 6.7°
Reaches altitude 10° 02:09:49 10° 270° (W) 1,962 ? 6.3°
Maximum altitude 02:14:13 52° 347° (NNW) 755 ? 5.6°
Drops below altitude 10° 02:18:34 10° 64° (ENE) 1,938 ? 4.9°
Sets 02:20:53 0° 70° (ENE) 2,835 ? 4.5°
